Location: Unspecified
(0.0000°N, 0.0000°E)
Time: 16:17:54
(UTC+02:00)

IUS-9 SRM-1 - Visible Passes

Search period start: 29 May 2015 00:00
Search period end: 08 June 2015 00:00
Orbit: 246 x 20416 km, 26.4° (Epoch: 28 May)

Date Brightness Start Highest point End Pass type
(mag) Time Alt. Az. Time Alt. Az. Time Alt. Az.
29 May 5.8 21:57:49 10° WSW 23:12:01 58° SSW 23:12:01 58° SSW visible
30 May 5.7 21:40:07 10° WSW 23:05:11 60° S 23:05:11 60° S visible
31 May 5.6 21:19:34 10° WSW 22:58:15 62° S 22:58:15 62° S visible
01 Jun 5.5 20:55:04 10° WSW 22:51:04 63° SSE 22:51:16 63° SSE visible
02 Jun 5.5 20:25:59 10° WSW 22:43:10 64° SSE 22:44:11 63° SSE visible
03 Jun 5.4 19:54:48 10° WSW 22:35:09 64° SSE 22:37:03 61° SE visible
04 Jun 5.4 19:26:29 10° WSW 22:27:02 64° SSE 22:29:50 57° ESE visible
05 Jun 5.4 19:02:36 10° WSW 22:18:49 65° SSE 22:22:32 53° ESE visible
06 Jun 5.4 18:42:12 10° WSW 22:10:28 65° SSE 22:15:09 49° ESE visible
07 Jun 5.5 18:24:11 10° WSW 22:02:02 65° SSE 22:07:42 44° E visible
